This is the latest recevied weather packets stored in our database for station/object vk4zu-13. If no packets are shown the sender has not sent any weather packets the latest 10 day(s).
| Time | Temp. | Humidity | Pressure | Rain* | Wind** | Luminosity | Snow |
|---|---|---|---|---|---|---|---|
| 1777940196 | 25° C | 70% | 1017.9 hPa | 0 mm | - | 619 W/m² | - |
| 1777940127 | 25° C | 73% | 1017.9 hPa | 0 mm | - | 619 W/m² | - |
| 1777940065 | 25° C | 72% | 1018 hPa | 0 mm | - | 619 W/m² | - |
| 1777940012 | 25° C | 73% | 1018 hPa | 0 mm | - | 619 W/m² | - |
| 1777939943 | 25° C | 72% | 1018 hPa | 0 mm | - | 621 W/m² | - |
| 1777939883 | 25° C | 72% | 1018.1 hPa | 0 mm | - | 619 W/m² | - |
| 1777939816 | 25° C | 73% | 1018.1 hPa | 0 mm | - | 612 W/m² | - |
| 1777939746 | 25° C | 72% | 1018.2 hPa | 0 mm | - | 610 W/m² | - |
| 1777939676 | 24.44° C | 73% | 1018.2 hPa | 0 mm | - | 608 W/m² | - |
| 1777939608 | 24.44° C | 75% | 1018.2 hPa | 0 mm | - | 605 W/m² | - |
| 1777939537 | 24.44° C | 74% | 1018.1 hPa | 0 mm | - | 605 W/m² | - |
| 1777939479 | 24.44° C | 76% | 1018.2 hPa | 0 mm | - | 610 W/m² | - |
| 1777939405 | 24.44° C | 78% | 1018.1 hPa | 0 mm | - | 615 W/m² | - |
| 1777939336 | 23.89° C | 79% | 1018.1 hPa | 0 mm | - | 615 W/m² | - |
| 1777939273 | 23.33° C | 77% | 1018.1 hPa | 0 mm | - | 237 W/m² | - |
| 1777939214 | 23.33° C | 77% | 1018.1 hPa | 0 mm | - | 169 W/m² | - |
| 1777939145 | 23.33° C | 77% | 1018.1 hPa | 0 mm | - | 169 W/m² | - |
| 1777939082 | 23.33° C | 77% | 1018.1 hPa | 0 mm | - | 93 W/m² | - |
| 1777939024 | 23.33° C | 77% | 1018.2 hPa | 0 mm | - | 109 W/m² | - |
| 1777938959 | 23.33° C | 77% | 1018.1 hPa | 0 mm | - | 116 W/m² | - |
| 1777938898 | 23.33° C | 77% | 1018.1 hPa | 0 mm | - | 127 W/m² | - |
| 1777938847 | 23.33° C | 77% | 1018.1 hPa | 0 mm | - | 142 W/m² | - |
| 1777938782 | 23.89° C | 77% | 1018.1 hPa | 0 mm | - | 142 W/m² | - |
| 1777938703 | 23.89° C | 77% | 1018 hPa | 0 mm | - | 113 W/m² | - |
| 1777938636 | 23.89° C | 77% | 1018.1 hPa | 0 mm | - | 102 W/m² | - |
* Rain latest hour (hover to see other rain measurements)
** Current wind speed in m/s (hover to see current wind gust speed)